Time,B instrument,Bx,By,Bz,sigma B,Ion instrument,Status,Tp_par,Tp_perp,carrot,r_sun,clat,clong,earth_he_angle,n_p,vp_x,vp_y,vp_z,vth_p_par,vth_p_perp
1980-10-15 00:02:43,-1,nan,nan,nan,nan,1,3,nan,nan,1700,0.8262611,-4.2965775,192.44441,90.631912,nan,529.893,-39.4716,4.44708,nan,nan
1980-10-15 00:13:31,-1,nan,nan,nan,nan,1,3,nan,nan,1700,0.82620448,-4.2973442,192.34283,90.631897,nan,555.154,-47.0288,28.4388,nan,nan
1980-10-15 00:24:19,-1,nan,nan,nan,nan,1,3,nan,nan,1700,0.82614785,-4.298111,192.24518,90.631897,nan,558.333,-43.9625,35.4078,nan,nan
1980-10-15 00:35:07,-1,nan,nan,nan,nan,1,3,nan,nan,1700,0.82609123,-4.2988777,192.14752,90.631897,nan,548.022,-24.3096,0.542845,nan,nan
1980-10-15 00:45:55,-1,nan,nan,nan,nan,1,3,nan,nan,1700,0.82603979,-4.2995749,192.04596,90.631897,nan,548.884,-36.4941,22.3272,nan,nan
1980-10-15 00:56:43,-1,nan,nan,nan,nan,1,3,nan,nan,1700,0.82598317,-4.3003416,191.9483,90.631897,nan,571.27,-63.0068,21.2757,nan,nan
1980-10-15 01:07:31,-1,nan,nan,nan,nan,1,3,nan,nan,1700,0.82592648,-4.3011084,191.85065,90.631897,nan,546.255,-48.161,12.3636,nan,nan
1980-10-15 01:18:19,-1,nan,nan,nan,nan,1,3,nan,nan,1700,0.82586986,-4.3018761,191.74908,90.631897,nan,544.633,-40.37,-0.512786,nan,nan
1980-10-15 01:29:07,-1,nan,nan,nan,nan,1,3,nan,nan,1700,0.82581317,-4.3026428,191.65143,90.631897,nan,542.157,18.7405,-12.7852,nan,nan
1980-10-15 01:39:55,-1,nan,nan,nan,nan,1,3,nan,nan,1700,0.82576168,-4.30334,191.55377,90.631897,nan,555.23,51.1657,-1.87399,nan,nan
1980-10-15 01:50:43,-1,nan,nan,nan,nan,1,3,nan,nan,1700,0.82570499,-4.3041067,191.45221,90.631897,nan,555.976,43.8466,9.89401,nan,nan
1980-10-15 02:01:31,-1,nan,nan,nan,nan,1,4,nan,nan,1700,0.82564831,-4.3048744,191.35457,90.631912,nan,nan,nan,nan,nan,nan
1980-10-15 02:12:19,-1,nan,nan,nan,nan,1,3,nan,nan,1700,0.82559156,-4.3056421,191.25691,90.631912,nan,539.104,-12.0571,45.0096,nan,nan
1980-10-15 02:46:13,-1,nan,nan,nan,nan,1,4,nan,nan,1700,0.82541627,-4.3080139,190.94444,90.631943,nan,nan,nan,nan,nan,nan
1980-10-15 02:48:39,1,5.03333,-2.63333,0.0333333,1.21747,1,1,192074.0,241271.0,1700,0.82540596,-4.3081541,190.92491,90.631943,3.92962,523.868,23.6172,29.2952,56.3109,63.1118
1980-10-15 02:50:00,1,2.75,2.85,-2.7,0.3937,1,1,204060.0,262354.0,1700,0.82539564,-4.3082933,190.90929,90.631943,4.28761,553.022,-25.0081,57.0711,58.0412,65.8115
1980-10-15 02:51:21,1,3.88,1.68,-1.14,1.10073,1,1,568347.0,262135.0,1700,0.82539046,-4.308363,190.89757,90.631943,5.63086,529.231,-7.22606,41.474,96.8645,65.784
1980-10-15 02:52:42,1,5.87,-1.64,1.8,0.458803,1,1,258614.0,301477.0,1700,0.82538533,-4.3084326,190.88585,90.631943,4.55288,530.296,12.8043,25.7393,65.3408,70.5481
1980-10-15 02:56:25,-1,nan,nan,nan,nan,1,3,nan,nan,1700,0.82536471,-4.308712,190.85069,90.631943,nan,533.278,26.3986,10.3853,nan,nan
1980-10-15 02:59:07,1,2.65714,-5.0,5.71429,1.52997,1,1,294053.0,308952.0,1700,0.82534921,-4.3089209,190.82726,90.631943,5.27301,549.869,40.442,1.96765,69.674,71.4173
1980-10-15 02:59:27,1,3.62,-4.85,4.03,2.16523,1,1,301956.0,281078.0,1700,0.82534921,-4.3089209,190.82335,90.631943,4.79001,543.859,16.3665,-17.123,70.6041,68.1194
1980-10-15 03:00:48,1,4.26,-4.53,3.64,0.613922,1,1,232345.0,293977.0,1700,0.82534403,-4.3089914,190.81165,90.631958,5.2156,533.722,8.17649,19.2024,61.9334,69.665
1980-10-15 03:02:09,1,1.46667,-7.21111,4.28889,1.91711,1,1,252364.0,273075.0,1700,0.82533371,-4.3091307,190.79993,90.631958,5.50837,536.645,24.6577,40.3587,64.5463,67.1427
1980-10-15 03:06:55,1,2.8375,-7.4125,3.225,0.585502,1,1,258781.0,249649.0,1700,0.82531309,-4.3094101,190.75696,90.631958,5.39797,568.52,42.0139,7.42772,65.3618,64.1982
1980-10-15 03:08:16,1,4.01818,-5.02727,-0.890909,1.7233,1,1,224292.0,270019.0,1700,0.82530278,-4.3095493,190.74524,90.631958,5.51531,548.347,35.5506,25.7229,60.8505,66.766
1980-10-15 03:09:37,1,3.92222,-5.64444,-0.644444,1.31318,1,1,326802.0,280311.0,1700,0.82529759,-4.3096189,190.72961,90.631958,5.58556,560.169,11.0354,62.29,73.4515,68.0265
1980-10-15 03:10:15,1,3.73,-5.93,-0.19,1.19042,1,1,257708.0,256903.0,1700,0.82529241,-4.3096886,190.72571,90.631958,4.90909,544.636,24.5993,45.4974,65.2262,65.1243
1980-10-15 03:11:36,1,4.27,-4.95,-0.28,0.679853,1,1,265417.0,273366.0,1700,0.82528728,-4.3097591,190.71399,90.631958,4.86897,547.807,25.657,45.1759,66.1946,67.1785
1980-10-15 03:12:57,1,4.47,-3.89,-1.32,0.456727,1,1,277556.0,267729.0,1700,0.8252821,-4.3098288,190.70229,90.631973,5.29814,546.064,17.2645,51.7642,67.6914,66.4822
1980-10-15 03:14:18,1,4.36,-2.61,-2.17,0.649153,1,1,274627.0,279917.0,1700,0.82527179,-4.309968,190.68666,90.631973,5.47347,539.444,6.46721,47.4009,67.3332,67.9786
1980-10-15 03:15:39,1,3.99,-1.05,-2.66,0.657115,1,1,299113.0,266974.0,1700,0.8252666,-4.3100376,190.67494,90.631973,5.51468,535.389,0.617457,51.0523,70.2709,66.3885
1980-10-15 03:17:00,1,4.26,-3.4,-1.8,0.62482,1,1,262393.0,281046.0,1700,0.82525629,-4.3101778,190.66322,90.631973,5.25266,546.248,15.2622,51.6424,65.8164,68.1156
1980-10-15 03:18:21,1,4.93,-4.3,0.72,0.525071,1,1,296433.0,260329.0,1700,0.8252511,-4.3102474,190.6515,90.631973,5.32817,543.82,17.9031,38.5977,69.9554,65.557
1980-10-15 03:19:42,1,4.82,-3.35,-0.44,0.809012,1,1,301863.0,290181.0,1700,0.82524598,-4.310317,190.63979,90.631973,5.55097,542.406,17.703,47.7642,70.5932,69.2138
1980-10-15 03:21:03,1,4.86,-3.63,0.32,0.749733,1,1,233122.0,236970.0,1700,0.82523566,-4.3104563,190.62807,90.631973,4.81733,535.363,13.4797,40.5353,62.0368,62.5467
1980-10-15 03:22:24,1,4.62,-4.07,0.36,1.29773,1,1,281372.0,256648.0,1700,0.82523048,-4.3105268,190.61244,90.631973,5.5351,549.43,30.5561,37.0163,68.1551,65.0919
1980-10-15 03:23:45,1,4.98,-2.76,0.72,0.414246,1,1,275170.0,256210.0,1700,0.82522529,-4.3105965,190.60072,90.631973,5.53971,537.768,8.55453,39.3583,67.3997,65.0364
1980-10-15 03:25:06,1,5.1,-2.95,1.72,0.536749,1,1,224247.0,259585.0,1700,0.82521498,-4.3107357,190.58902,90.631989,4.87668,536.6,14.7297,31.1052,60.8445,65.4632
1980-10-15 03:26:27,1,5.3,-2.16,2.68,0.8,1,1,242547.0,261316.0,1700,0.8252098,-4.3108053,190.5773,90.631989,4.945,537.085,0.896297,19.9753,63.2784,65.6811
1980-10-15 03:27:48,1,5.25,-2.29,2.72,0.443847,1,1,213272.0,279585.0,1700,0.82520467,-4.3108759,190.56558,90.631989,5.04261,535.524,5.76804,24.7491,59.3369,67.9384
1980-10-15 03:29:09,1,5.16,-2.48,3.08,0.876128,1,1,236817.0,247588.0,1700,0.82519436,-4.3110151,190.55386,90.631989,5.15527,536.791,11.3217,21.9012,62.5265,63.9326
1980-10-15 03:30:30,1,4.77778,-2.96667,3.55556,0.379733,1,1,219374.0,280783.0,1700,0.82518917,-4.3110847,190.53824,90.631989,5.27349,535.385,13.2398,18.5802,60.1798,68.0837
1980-10-15 03:31:51,1,4.65,-3.68,2.8,0.467012,1,1,233583.0,268346.0,1700,0.82518399,-4.3111544,190.52652,90.631989,4.92971,532.296,18.4298,20.4003,62.0981,66.5588
1980-10-15 03:33:12,1,4.87778,-3.82222,2.26667,0.582248,1,1,241489.0,294857.0,1700,0.82517368,-4.3112946,190.5148,90.631989,4.9739,531.754,22.4367,23.3734,63.1403,69.7692
1980-10-15 03:34:33,1,4.83333,-3.22222,1.51111,0.309918,1,1,254043.0,264737.0,1700,0.82516855,-4.3113642,190.50308,90.631989,5.1476,534.731,19.2265,24.9326,64.7607,66.1097
1980-10-15 03:35:54,1,4.43,-4.94,2.2,0.90471,1,1,233328.0,273935.0,1700,0.82516336,-4.3114338,190.49136,90.631989,4.83875,536.31,29.8196,22.6545,62.0643,67.2484
1980-10-15 03:37:15,1,3.25,-6.95,3.2,0.667083,1,1,271766.0,277460.0,1700,0.82515305,-4.311573,190.47966,90.632004,5.14838,546.338,44.9588,14.3541,66.9815,67.6796
1980-10-15 03:38:36,1,3.16,-6.46,3.84,0.60597,1,1,242800.0,289709.0,1700,0.82514787,-4.3116436,190.46404,90.632004,5.16054,543.107,41.7757,13.7381,63.3115,69.1575
1980-10-15 03:39:57,1,3.7,-5.39,4.1,1.71607,1,1,301327.0,282027.0,1700,0.82514268,-4.3117132,190.45232,90.632004,5.25413,546.797,34.1028,15.0872,70.5305,68.2344
1980-10-15 03:41:18,1,3.96,-5.45,4.16,0.644438,1,1,325328.0,299003.0,1700,0.82513237,-4.3118525,190.4406,90.632004,5.77371,542.224,25.3751,8.39267,73.2856,70.258
1980-10-15 03:42:39,1,3.72,-5.99,3.95,0.470106,1,1,251593.0,267222.0,1700,0.82512724,-4.3119221,190.42888,90.632004,5.27522,545.643,29.0357,9.25048,64.4476,66.4193
1980-10-15 03:44:00,1,3.28,-6.49,4.24,0.771298,1,1,298599.0,262524.0,1700,0.82511687,-4.3120623,190.41716,90.632004,5.30239,546.623,34.0053,3.7983,70.2105,65.8328
1980-10-15 03:45:21,1,3.27,-6.5,4.11,0.563028,1,1,251624.0,274142.0,1700,0.82511175,-4.3121319,190.40544,90.632004,4.87809,544.461,39.6701,7.84686,64.4516,67.2738
1980-10-15 03:46:42,1,3.23333,-7.03333,3.17778,0.829696,1,1,285152.0,238029.0,1700,0.82510656,-4.3122015,190.38982,90.632004,5.31323,555.544,39.4098,18.1627,68.6114,62.6863
1980-10-15 03:48:03,1,2.73,-6.74,4.43,0.884647,1,1,256512.0,248819.0,1700,0.82509625,-4.3123407,190.37811,90.632019,5.2536,547.18,35.8506,5.78229,65.0746,64.0914
1980-10-15 03:49:24,1,1.4,-8.71111,2.82222,1.15106,1,1,244977.0,202160.0,1700,0.82509106,-4.3124113,190.36639,90.632019,4.95348,571.162,42.0935,14.8481,63.5946,57.7704
1980-10-15 03:50:45,1,2.45,-7.86,2.04,1.00762,1,1,262406.0,216708.0,1700,0.82508594,-4.3124809,190.35468,90.632019,4.76103,555.632,42.7136,25.5236,65.818,59.813
1980-10-15 03:52:06,1,4.03333,-5.54444,3.24444,1.63382,1,1,249621.0,257723.0,1700,0.82507557,-4.3126202,190.34296,90.632019,5.19746,544.833,29.4036,20.865,64.1946,65.2281
1980-10-15 03:54:48,-1,nan,nan,nan,nan,1,3,nan,nan,1700,0.82506526,-4.3127594,190.31561,90.632019,nan,541.651,17.4572,24.9946,nan,nan
1980-10-15 03:56:09,1,5.14,-4.75,0.45,0.497393,1,1,264941.0,217359.0,1700,0.82505494,-4.3128996,190.30389,90.632019,5.72688,541.278,19.8184,30.554,66.1351,59.9027
1980-10-15 03:57:30,1,4.9,-2.26,-2.01,1.05702,1,1,214363.0,246991.0,1700,0.82504976,-4.3129692,190.29218,90.632019,5.41345,543.096,9.70265,44.9928,59.4884,63.8555
1980-10-15 03:58:51,1,4.72,-2.07,-2.53,0.594811,1,1,260453.0,212723.0,1700,0.82504463,-4.3130388,190.28046,90.632019,5.20462,547.769,10.3276,51.8487,65.5726,59.2604
1980-10-15 04:00:12,1,4.96,-2.51,-2.12,0.902718,1,1,254865.0,251152.0,1700,0.82503432,-4.313179,190.26875,90.632034,5.91395,549.868,1.83197,46.1198,64.8654,64.3911
1980-10-15 04:01:33,1,4.55,-3.81,-2.56,0.67513,1,1,266564.0,208434.0,1700,0.82502913,-4.3132486,190.25703,90.632034,5.74777,551.485,10.199,42.0518,66.3375,58.6601
1980-10-15 04:02:54,1,4.47778,-4.12222,-2.57778,0.324323,1,1,215047.0,195890.0,1700,0.82502395,-4.3133183,190.24141,90.632034,5.33426,556.46,15.7483,50.9515,59.5833,56.8675
1980-10-15 04:04:15,1,4.68,-3.23,-2.6,0.604731,1,1,254837.0,202492.0,1700,0.82501364,-4.3134575,190.22969,90.632034,5.41304,555.476,13.9792,46.9038,64.8619,57.8178
1980-10-15 04:05:36,1,5.02222,-4.75556,-1.28889,0.723162,1,1,241831.0,202928.0,1700,0.82500845,-4.3135271,190.21797,90.632034,5.64437,555.53,19.1362,37.0594,63.185,57.8801
1980-10-15 04:06:57,1,4.89,-4.08,-1.6,0.93086,1,1,262920.0,207362.0,1700,0.82500327,-4.3135977,190.20625,90.632034,5.85997,555.96,12.3311,44.8816,65.8824,58.509
1980-10-15 04:08:18,1,4.79,-3.98,-1.76,0.401123,1,1,269049.0,232337.0,1700,0.82499295,-4.3137369,190.19453,90.632034,6.1553,553.983,10.2602,41.8707,66.6459,61.9323
1980-10-15 04:09:37,1,4.19,-3.32,-3.31,0.793347,1,1,289064.0,216878.0,1700,0.82498777,-4.3138065,190.18283,90.63205,5.61686,553.404,10.4226,49.2678,69.0804,59.8364
1980-10-15 05:21:55,-1,nan,nan,nan,nan,1,3,nan,nan,1700,0.8246156,-4.3188314,189.51891,90.632187,nan,524.759,10.7396,8.84699,nan,nan
1980-10-15 05:23:16,1,5.4,-2.08889,6.57778,0.414252,1,1,77209.2,184056.0,1700,0.82460529,-4.3189716,189.50719,90.632187,4.99181,524.103,-2.20318,2.72364,35.702,55.123
1980-10-15 05:24:37,1,6.26667,-2.96667,5.7,0.494413,1,1,70458.7,132792.0,1700,0.8246001,-4.3190413,189.49547,90.632187,4.44523,520.209,7.7282,16.1384,34.1056,46.8214
1980-10-15 05:25:58,1,6.97778,-2.28889,4.18889,0.43376,1,1,75807.7,183550.0,1700,0.82459491,-4.3191109,189.48375,90.632187,4.85074,518.466,-0.274246,21.3134,35.3765,55.0471
1980-10-15 05:27:21,1,6.72,-2.64,4.9,0.374166,1,1,74250.8,170208.0,1700,0.82458454,-4.3192511,189.46814,90.632202,4.69206,518.264,-3.26815,15.8215,35.0113,53.0088
1980-10-15 05:28:42,1,6.98889,-1.83333,4.1,0.42017,1,1,85610.3,177826.0,1700,0.82457942,-4.3193207,189.45642,90.632202,4.82378,519.713,-11.0862,23.9164,37.5942,54.182
1980-10-15 05:30:03,1,7.25,-1.58,3.5,0.508035,1,1,56010.1,191095.0,1700,0.82456905,-4.3194609,189.4447,90.632202,4.51858,515.853,-8.71654,30.2263,30.4082,56.1672
1980-10-15 05:31:24,1,6.64444,-0.911111,4.03333,0.849255,1,1,95867.4,191488.0,1700,0.82456386,-4.3195305,189.43298,90.632202,4.84592,526.275,-18.6174,18.1181,39.7826,56.2249
1980-10-15 05:32:45,1,6.32,-1.39,5.31,0.425911,1,1,72138.2,174949.0,1700,0.82455868,-4.3196001,189.42126,90.632202,4.26543,520.018,-18.3865,11.9674,34.5097,53.7419
1980-10-15 05:34:06,1,6.5,-1.76,4.85,0.610655,1,1,86085.1,163841.0,1700,0.82454836,-4.3197393,189.40956,90.632217,4.49029,518.099,-9.17741,21.174,37.6983,52.0079
1980-10-15 05:35:27,1,6.95,-1.06,4.22,0.540833,1,1,61090.2,178821.0,1700,0.82454318,-4.3198099,189.39394,90.632217,4.53012,516.973,-17.2449,24.0887,31.7573,54.3335
1980-10-15 05:36:48,1,6.67778,-0.777778,3.87778,0.490653,1,1,99454.4,163854.0,1700,0.82453799,-4.3198795,189.38222,90.632217,4.6355,521.157,-19.5008,29.3863,40.52,52.0099
1980-10-15 05:38:09,1,6.82,-0.63,2.61,0.429651,1,1,80007.2,190946.0,1700,0.82452768,-4.3200188,189.3705,90.632217,4.21565,519.019,-16.5654,41.6322,36.3431,56.1452
1980-10-15 05:39:30,1,6.36667,-0.633333,4.43333,0.69282,1,1,104286.0,171504.0,1700,0.8245225,-4.3200893,189.35878,90.632217,4.67469,522.169,-16.0452,30.2976,41.4927,53.2103
1980-10-15 05:40:51,1,6.05,-2.53,5.62,1.04221,1,1,97733.4,183286.0,1700,0.82451731,-4.320159,189.34708,90.632233,4.57721,523.828,-7.60248,10.4166,40.1679,55.0076
1980-10-15 05:42:12,1,5.87,-0.54,6.01,0.631981,1,1,74352.4,166192.0,1700,0.824507,-4.3202982,189.33536,90.632233,4.35868,526.265,-20.7658,11.1814,35.0353,52.3797
1980-10-15 05:43:33,1,5.82,-0.99,5.73,0.884647,1,1,99809.3,201684.0,1700,0.82450181,-4.3203688,189.31973,90.632233,4.47043,529.56,-28.9483,7.38449,40.5923,57.7024
1980-10-15 05:44:54,1,6.23,-1.84,4.08,1.50403,1,1,94326.2,200415.0,1700,0.82449663,-4.3204384,189.30801,90.632233,5.23366,523.2,-2.17577,33.7466,39.4615,57.5206
1980-10-15 05:46:15,1,6.15,-2.99,4.58,0.364692,1,1,83208.2,196147.0,1700,0.82448632,-4.3205776,189.2963,90.632233,4.42794,523.458,6.29136,21.526,37.063,56.9048
1980-10-15 05:47:36,1,5.48889,-4.66667,5.24444,0.519734,1,1,82961.5,165893.0,1700,0.82448113,-4.3206482,189.28459,90.632248,4.22079,527.846,29.8289,22.1512,37.008,52.3326
1980-10-15 05:48:57,1,5.4,-3.64,5.89,0.59439,1,1,85000.2,168493.0,1700,0.82447594,-4.3207178,189.27287,90.632248,4.47832,527.737,14.6086,9.16495,37.46,52.741
1980-10-15 05:50:18,1,5.84,-5.15,1.38,1.34183,1,1,106330.0,156207.0,1700,0.82446557,-4.320857,189.26115,90.632248,4.13049,529.207,25.7006,77.802,41.8973,50.7817
1980-10-15 05:51:39,1,5.33,-5.65,-1.17,0.640859,1,1,130897.0,191957.0,1700,0.82446045,-4.3209267,189.24553,90.632248,4.68278,536.714,23.9527,61.4722,46.486,56.2938
1980-10-15 05:53:00,1,4.5,-7.3,-0.81,0.33,1,1,110004.0,182029.0,1700,0.82445008,-4.3210669,189.23381,90.632248,4.7548,545.965,37.4317,67.5227,42.6149,54.8186
1980-10-15 05:54:21,1,4.58,-6.77,-1.55,0.724017,1,1,137585.0,205531.0,1700,0.82444489,-4.3211365,189.22211,90.632263,4.74849,547.033,42.0879,67.557,47.6588,58.2501
1980-10-15 05:55:42,1,4.56,-6.58,-1.71,1.22593,1,1,127788.0,187608.0,1700,0.8244397,-4.3212061,189.21039,90.632263,4.51464,545.521,37.7549,73.5474,45.9307,55.6524
1980-10-15 05:57:03,1,4.79,-6.53,1.01,2.21402,1,1,150833.0,166534.0,1700,0.82442939,-4.3213463,189.19867,90.632263,4.51009,540.079,32.235,59.7152,49.9006,52.4336
1980-10-15 05:58:24,1,5.51,-5.69,0.7,0.613025,1,1,113631.0,197618.0,1700,0.82442421,-4.3214159,189.18695,90.632263,4.49452,530.88,31.795,51.4771,43.3119,57.1178
1980-10-15 05:59:45,1,5.62,-6.07,0.58,0.281603,1,1,105592.0,174857.0,1700,0.82441902,-4.3214855,189.17133,90.632263,4.32997,537.53,26.7573,56.2172,41.7517,53.7279
1980-10-15 06:01:06,1,5.87,-5.22,0.62,0.649076,1,1,117781.0,211302.0,1700,0.82440871,-4.3216257,189.15962,90.632278,4.90302,526.588,19.8313,52.9697,44.0956,59.0622
1980-10-15 06:02:27,1,4.68,-6.98,-0.5,0.670224,1,1,131263.0,168835.0,1700,0.82440352,-4.3216953,189.1479,90.632278,4.27516,538.926,33.8212,62.9253,46.5509,52.7946
1980-10-15 06:03:48,1,3.19,-8.3,-1.12,0.745989,1,1,88288.9,202685.0,1700,0.82439834,-4.3217649,189.13618,90.632278,4.56772,543.923,42.3971,66.2034,38.1778,57.8454
1980-10-15 06:05:09,1,5.04,-6.39,0.79,1.76017,1,1,146513.0,211390.0,1700,0.82438797,-4.3219042,189.12447,90.632278,5.315,532.807,36.7208,48.4076,49.1808,59.0746
1980-10-15 06:06:30,1,4.61,-4.26,6.6,0.601082,1,1,97541.0,176708.0,1700,0.82438278,-4.3219748,189.11276,90.632294,4.09202,529.263,27.0405,9.92321,40.1284,54.0115
1980-10-15 06:07:51,1,4.54,-3.61,7.12,0.465725,1,1,89078.0,179334.0,1700,0.8243776,-4.3220444,189.09714,90.632294,4.20742,532.782,9.40368,-6.38271,38.348,54.4113
1980-10-15 06:09:12,1,4.76667,-5.81111,5.68889,1.08616,1,1,96044.8,162868.0,1700,0.82436723,-4.3221836,189.08542,90.632294,4.14241,529.616,35.091,19.5611,39.8194,51.8532
1980-10-15 06:14:25,1,4.21111,-7.27778,5.03333,0.575851,1,1,117736.0,145615.0,1700,0.82546794,-4.5663671,188.81146,90.405212,4.65431,538.782,26.2457,23.0677,44.0872,49.0298
1980-10-15 06:14:35,1,4.12,-7.58,4.69,0.813695,1,1,133411.0,150669.0,1700,0.82434654,-4.322463,189.03856,90.632309,4.61693,523.254,7.52302,9.00815,46.9304,49.8735
1980-10-15 06:15:46,1,4.47778,-5.48889,4.08889,3.39826,1,1,98801.7,166456.0,1700,0.82433617,-4.3226023,189.02684,90.632309,4.71462,539.706,34.6748,18.0091,40.3869,52.4212
1980-10-15 06:15:57,1,5.06,-3.6,5.24,2.85881,1,1,137555.0,176153.0,1700,0.82433617,-4.3226023,189.02293,90.632309,5.68077,518.503,9.35001,24.1667,47.6537,53.9265
1980-10-15 06:17:18,1,5.18889,-0.411111,6.34444,0.235702,1,1,111602.0,190035.0,1700,0.8243258,-4.3227415,189.01123,90.632324,5.04315,524.796,-21.6086,10.6631,42.9233,56.0112
1980-10-15 06:18:39,1,4.91,0.61,6.37,1.16872,1,1,83253.9,165436.0,1700,0.82432061,-4.3228121,188.99951,90.632324,4.37176,525.279,-21.1332,5.95152,37.0732,52.2604
1980-10-15 06:20:00,1,0.866667,-5.12222,9.28889,0.581611,1,1,54959.3,150984.0,1700,0.8243103,-4.3229513,188.98779,90.632324,4.02618,554.126,22.7196,-19.4253,30.1216,49.9257
1980-10-15 06:21:21,1,1.91111,-4.36667,9.24444,0.706408,1,1,70197.0,150344.0,1700,0.82430512,-4.3230209,188.97607,90.632324,4.76391,548.37,13.2154,-19.5227,34.0422,49.8197
1980-10-15 06:22:42,1,3.75556,-3.45556,8.22222,0.993311,1,1,65784.8,149969.0,1700,0.82429993,-4.3230906,188.96437,90.632339,4.48107,534.236,12.4955,-9.30578,32.9549,49.7575
1980-10-15 06:24:03,1,4.1,-2.43333,8.03333,0.301846,1,1,45527.0,134831.0,1700,0.82428956,-4.3232307,188.94875,90.632339,4.00894,530.315,-3.24502,-10.5358,27.4153,47.1794
1980-10-15 06:25:24,1,4.03333,-1.82222,7.91111,0.497152,1,1,87227.6,153871.0,1700,0.82428437,-4.3233004,188.93703,90.632339,4.75635,524.133,-3.67521,1.65328,37.9477,50.4007
1980-10-15 06:26:45,1,3.28,-0.34,8.06,1.24996,1,1,104191.0,135911.0,1700,0.82427919,-4.32337,188.92531,90.632339,3.98441,530.838,-43.7461,6.41055,41.4737,47.3681
1980-10-15 06:28:06,1,3.9,-1.16667,7.58889,1.17137,1,1,58469.6,134969.0,1700,0.82426882,-4.3235092,188.9136,90.632355,3.95614,535.251,-0.491605,-10.8893,31.0687,47.2036
1980-10-15 06:29:27,1,5.49,-2.34,6.03,0.84463,1,1,79110.2,152004.0,1700,0.82426363,-4.3235788,188.90189,90.632355,4.35183,516.563,0.314925,19.1247,36.1388,50.0939
1980-10-15 06:30:48,1,4.9,-2.33333,5.64444,2.79885,1,1,81203.8,176912.0,1700,0.82425845,-4.3236494,188.89017,90.632355,5.13781,515.914,1.36858,31.5648,36.6139,54.0426
1980-10-15 06:32:09,1,4.96,-3.62,6.11,1.06626,1,1,57930.1,70255.9,1700,0.82424814,-4.3237886,188.87454,90.632355,3.57085,515.883,16.9663,26.3103,30.925,34.0564
1980-10-15 06:33:30,1,5.82222,-3.36667,4.44444,0.881777,1,1,78383.4,166520.0,1700,0.82424295,-4.3238583,188.86284,90.63237,4.94306,512.399,10.6244,32.9023,35.9724,52.4313
1980-10-15 06:34:51,1,6.22222,-2.02222,3.9,0.311111,1,1,86351.0,173295.0,1700,0.82423776,-4.3239279,188.85112,90.63237,4.7243,511.503,-8.5214,42.0485,37.7565,53.4874
1980-10-15 06:36:12,1,6.28889,0.3,3.15556,0.50234,1,1,92001.9,161429.0,1700,0.82422739,-4.3240681,188.8394,90.63237,4.57544,514.719,-27.1393,41.7605,38.9723,51.6236
1980-10-15 06:37:33,1,6.45,-1.11,3.33,0.56701,1,1,70843.0,181035.0,1700,0.82422221,-4.3241377,188.82768,90.63237,4.7464,510.751,-18.9544,46.1938,34.1984,54.6687
1980-10-15 06:38:54,-1,nan,nan,nan,nan,1,3,nan,nan,1700,0.82421702,-4.3242073,188.81596,90.63237,nan,518.246,-21.1091,27.0428,nan,nan
1980-10-15 06:40:15,-1,nan,nan,nan,nan,1,3,nan,nan,1700,0.82420671,-4.3243465,188.80035,90.632385,nan,514.905,-34.4495,58.8345,nan,nan
1980-10-15 06:41:36,-1,nan,nan,nan,nan,1,3,nan,nan,1700,0.82420152,-4.3244162,188.78864,90.632385,nan,514.213,-13.6614,41.8817,nan,nan
1980-10-15 06:42:57,-1,nan,nan,nan,nan,1,3,nan,nan,1700,0.82419634,-4.3244867,188.77692,90.632385,nan,518.731,-13.0826,11.3104,nan,nan
1980-10-15 06:47:00,-1,nan,nan,nan,nan,1,3,nan,nan,1700,0.82417041,-4.3248348,188.74178,90.632401,nan,516.441,-28.1043,24.7853,nan,nan
1980-10-15 06:48:21,-1,nan,nan,nan,nan,1,3,nan,nan,1700,0.82416523,-4.3249054,188.72615,90.632401,nan,521.562,-33.7444,27.0901,nan,nan
1980-10-15 06:49:42,1,4.96667,0.822222,6.36667,0.853461,1,1,92114.4,146452.0,1700,0.82416004,-4.324975,188.71443,90.632401,4.80433,523.142,-27.2417,18.7549,38.9961,49.1705
1980-10-15 06:51:03,1,4.46,2.35,6.02,0.512348,1,1,94998.0,143402.0,1700,0.82414973,-4.3251143,188.70273,90.632416,4.99837,524.045,-36.1387,17.8919,39.6018,48.6559
1980-10-15 06:52:24,1,5.91,0.15,5.38,1.22025,1,1,84051.7,120507.0,1700,0.82414454,-4.3251839,188.69101,90.632416,4.21243,510.015,-11.1024,30.3235,37.2504,44.603
1980-10-15 06:53:45,1,4.46,0.83,7.11,1.4654,1,1,102851.0,153371.0,1700,0.82413936,-4.3252535,188.67929,90.632416,5.12765,522.355,-20.1551,13.5183,41.2061,50.3188
1980-10-15 06:55:06,1,5.16667,0.877778,6.24444,0.468778,1,1,90569.3,149879.0,1700,0.82412899,-4.3253937,188.66759,90.632431,4.79983,518.509,-22.2427,18.4385,38.6677,49.7426
1980-10-15 06:56:27,1,4.81,0.17,7.1,0.809321,1,1,97802.3,169249.0,1700,0.8241238,-4.3254633,188.65587,90.632431,4.40424,521.41,-12.1994,15.9391,40.1821,52.8592
1980-10-15 06:57:48,1,3.61111,2.87778,6.5,1.05958,1,1,109863.0,171156.0,1700,0.82411861,-4.3255329,188.64024,90.632431,5.29699,528.627,-33.5946,18.7066,42.5876,53.1562
1980-10-15 06:59:09,1,4.11,-2.17,8.01,1.19243,1,1,75558.1,161149.0,1700,0.82410824,-4.3256721,188.62852,90.632431,4.86268,536.867,15.2677,-5.86767,35.3182,51.5789
1980-10-15 07:00:30,1,5.16,1.95,4.96,1.27173,1,1,78108.3,163912.0,1700,0.82410312,-4.3257427,188.61682,90.632446,4.72808,521.199,-22.9295,17.5297,35.9093,52.0191
1980-10-15 07:01:51,1,5.37,2.27,3.96,0.773692,1,1,90551.2,132941.0,1700,0.82409793,-4.3258123,188.6051,90.632446,4.33398,522.198,-34.8364,32.7068,38.6638,46.8476
1980-10-15 07:03:12,1,3.01111,-1.65556,8.55556,1.65104,1,1,71987.7,150350.0,1700,0.82408756,-4.3259516,188.59338,90.632446,4.543,538.223,-5.40521,-11.4082,34.4736,49.8206
1980-10-15 07:04:33,1,5.42,-1.9,6.64,1.09453,1,1,66195.0,155698.0,1700,0.82408237,-4.3260212,188.58167,90.632446,4.23513,523.305,9.78452,3.14843,33.0575,50.699
1980-10-15 07:05:54,1,5.38,0.91,6.13,0.847703,1,1,92954.7,142237.0,1700,0.82407719,-4.3260918,188.56606,90.632462,4.43379,518.465,-25.4602,22.7631,39.1736,48.4579
1980-10-15 07:07:15,1,4.5,0.48,7.58,0.630238,1,1,85044.1,155133.0,1700,0.82406682,-4.326231,188.55434,90.632462,4.37609,531.182,-22.6135,5.88602,37.4697,50.607
1980-10-15 07:08:36,1,4.2,1.98,7.19,0.940479,1,1,96761.7,158257.0,1700,0.82406163,-4.3263006,188.54262,90.632462,4.27409,531.554,-32.5792,11.7245,39.9677,51.1139
1980-10-15 07:09:57,1,3.94,2.68,6.42,0.790949,1,1,80256.0,134849.0,1700,0.82405645,-4.3263712,188.5309,90.632462,3.88137,532.898,-43.2822,21.1606,36.3996,47.1826